CZ-3B DEB, 52965

Orbit data source: Space-Track

CZ-3B DEB, 52965 is space debris in HEO originally from a launch on Sat, 04 Sep 2010 UTC launched from the Xichang Space Center, China (XSC). Debris objects in space refer to the collection of defunct objects orbiting the Earth. Examples of debris include non-operational satellites, rocket bodies, and fragments generated from explosions, collisions, or faulty payload assembly.

Loading next visibility...
CZ-3B DEB details
Identifier
52965, 2010-042AJ
Orbit
HEO
Last TLE update1 week ago
Origin
Flag of CNCASC (CN / PRC)
ManufacturerCALT
MissionSpacecraft
Bus & MotorUnknown
MassUnknown
Launch date (UTC)
2010-09-04 (14 years ago)
Launch vehicleUnknown
Launch site
Xichang Space Center, China (XSC)
Object type
Payload
Rocket body
Debris
Shape & HBRUnknown
Radar Cross SectionSmall (<0.1 m²)

Expand to show TLE details & history

TLE from 1 week ago
0 CZ-3B DEB
1 52965U 10042AJ  25015.11285919  .00000660  00000-0  87341-1 0  9999
2 52965  25.0367 359.5462 7421155 266.8309  14.7277  1.82738073 18810
Epoch: 2025-01-15T02:42Z
Definitive object data (Epoch: 2025-01-15T02:42:31.034Z)
Latitude-0.00017°
Longitude-155.8982°
Altitude6,816.803 km
Speed6.805 km/s
True Right ascension23h 58m 09s
True Declination0° 00' 01"
Sunlit
Object was in daylight at TLE epoch
Visualization TLE readout
Latitude24.22103°
Longitude-83.96739°
Altitude38,324.184 km
Speed1.931 km/s
Apparent Right ascension04h 34m 17s
Apparent Declination17° 30' 54"
Sunlit
Object is in daylight
Visualization observer readout
Local Sidereal Time14:54:44
Azimuth332.947° NNW
Elevation-28.059°
Doppler factor1
Orbital elements
Apogee altitude42,861.842 km
Perigee altitude910.833 km
Semi-major axis28,264.474 km
Eccentricity0.7421155
Inclination25.0367°
RAAN359.5462°
Arg. of periapsis266.8309°
True anomaly93.60783°
Mean anomaly14.7277°
Eccentric anomaly44.56459°
Mean motion0.45675 °/min
BSTAR0.087341
Orbital period788.17 mins
Loading maneuver chart data...
Loading historical data...
Loading historical data...
Loading historical data...
Loading historical data...
Loading historical data...
Loading historical data...
Loading historical data...

CZ-3B DEB Visibility forecast

Observer location: undefined°, undefined

Span
Click to sort rows by Start time (UTC) header in descending order
Start Az.
Max El. time (UTC)
Max El. Az.
Max El.
End time (UTC)
End Az.
740 mins2025-01-24 22:58:41.209Z200.605° SSW2025-01-25 04:15:41.209Z183.826° SSW43.691°2025-01-25 11:18:41.209Z183.186° SSW
|